カタログに戻る

COSMOS 1860

運用中軍事LEO
NORAD 18122·PAYLOAD·🇷🇺 Russia

打ち上げ Jun 18, 1987 から Baikonur Cosmodrome

Loading…

次のパス (今後24時間)

TLE

最新Source: Space-Track

元期: Sep 14, 2026, 03:09 UTC

1 18122U 87052A   26257.13175811 -.00000046  00000-0  37600-4 0  9996
2 18122  65.0102 158.8275 0047352 182.6638 177.4178 13.84973011985139

AllMySatでCOSMOS 1860をリアルタイム追跡

Download on the App Store